Location: Bonaustraße
(48.4603°N, 11.9280°E)
Time: 22:32:53
(UTC+02:00)

AO-92 - Pass Details

Date: 07 August 2021
Orbit: 484 x 494 km, 97.4° (Epoch: 17 September)

Event Time Altitude Azimuth Distance (km) Brightness Sun altitude
Exits shadow 22:06:26 16° 98° (E) 1,351 ? -12.6°
Maximum altitude 22:07:57 20° 65° (ENE) 1,172 ? -12.8°
Drops below altitude 10° 22:10:39 10° 17° (NNE) 1,680 ? -13.1°
Sets 22:13:06 0° 0° (N) 2,568 ? -13.4°
